Weather History for Garden City, KS

Change the Weather History Date:

Thursday, March 28, 2013

  Actual Average Record
Temperature  
Mean Temperature 49 °F 47 °F  
Max Temperature 66 °F 62 °F 90 °F (1963)
Min Temperature 32 °F 33 °F 3 °F (1970)
Degree Days  
Heating Degree Days 16 18  
Month to date heating degree days 617 611  
Since 1 July heating degree days 4518 4635  
Cooling Degree Days 0 0  
Month to date cooling degree days 0 0  
Year to date cooling degree days 0 0  
Moisture  
Dew Point 32 °F    
Average Humidity 55    
Maximum Humidity 78    
Minimum Humidity 31    
Precipitation  
Precipitation 0.00 in 0.06 in 0.48 in (1951)
Month to date precipitation 0.07 1.28  
Year to date precipitation 0.41 2.16  
Sea Level Pressure  
Sea Level Pressure 30.10 in    
Wind  
Wind Speed 9 mph (East)    
Max Wind Speed 15 mph    
Max Gust Speed 20 mph    
Visibility 10 miles    
Events      
T = Trace of Precipitation, MM = Missing Value Source: NWS Daily Summary

Daily Weather History Graph

Daily Weather History Graph

Search for Another Location

Airport:

Trip Planner

Search our weather history database for the weather conditions in past years. The results will help you decide how hot, cold, wet, or windy it might be!

Date:

Astronomy

Mar. 28, 2013 Rise Set
Actual Time 7:33 AM CDT 8:02 PM CDT
Civil Twilight 7:07 AM CDT 8:28 PM CDT
Nautical Twilight 6:36 AM CDT 8:59 PM CDT
Astronomical Twilight 6:04 AM CDT 9:31 PM CDT
Moon 9:53 PM CDT (3/28) 8:04 AM CDT (3/28)
Length of Visible Light 13h 21m
Length of Day
12h 28m
Full, 98% of the Moon is Illuminated
Mar 28
Full
Apr 2
Last Quarter
Apr 10
New
Apr 18
First Quarter
Apr 25
Full

Hourly Weather History & Observations

Time (CDT) Temp. Windchill Dew Point Humidity Pressure Visibility Wind Dir Wind Speed Gust Speed Precip Events Conditions
12:54 AM 42.1 °F 37.1 °F 28.0 °F 58% 30.14 in 10.0 mi ENE 8.1 mph - N/A   Clear
1:54 AM 41.0 °F 36.4 °F 28.0 °F 60% 30.13 in 10.0 mi NE 6.9 mph - N/A   Clear
2:54 AM 39.9 °F 35.8 °F 28.0 °F 63% 30.13 in 10.0 mi East 5.8 mph - N/A   Partly Cloudy
3:54 AM 37.9 °F 31.5 °F 28.0 °F 68% 30.10 in 10.0 mi NE 9.2 mph - N/A   Clear
4:54 AM 37.0 °F 31.0 °F 27.0 °F 67% 30.11 in 10.0 mi ENE 8.1 mph - N/A   Clear
5:54 AM 34.0 °F 27.2 °F 26.1 °F 73% 30.10 in 10.0 mi East 8.1 mph - N/A   Clear
6:54 AM 33.1 °F 25.5 °F 26.1 °F 75% 30.09 in 10.0 mi ENE 9.2 mph - N/A   Clear
7:54 AM 32.0 °F 25.6 °F 26.1 °F 79% 30.13 in 8.0 mi NNE 6.9 mph - N/A   Clear
8:54 AM 37.0 °F 31.0 °F 28.9 °F 73% 30.14 in 9.0 mi NE 8.1 mph - N/A   Clear
9:54 AM 46.0 °F 41.4 °F 30.0 °F 54% 30.15 in 10.0 mi East 9.2 mph - N/A   Clear
10:54 AM 51.1 °F - 30.9 °F 46% 30.15 in 10.0 mi East 9.2 mph - N/A   Clear
11:54 AM 54.0 °F - 30.0 °F 40% 30.14 in 10.0 mi ESE 12.7 mph - N/A   Clear
12:54 PM 57.0 °F - 30.9 °F 37% 30.13 in 10.0 mi ESE 9.2 mph 16.1 mph N/A   Clear
1:54 PM 62.1 °F - 32.0 °F 32% 30.09 in 10.0 mi ESE 9.2 mph - N/A   Clear
2:54 PM 63.0 °F - 33.1 °F 33% 30.07 in 10.0 mi SE 10.4 mph - N/A   Clear
3:54 PM 64.0 °F - 33.1 °F 31% 30.05 in 10.0 mi East 11.5 mph 17.3 mph N/A   Clear
4:54 PM 66.0 °F - 35.1 °F 32% 30.03 in 10.0 mi ESE 11.5 mph - N/A   Clear
5:54 PM 66.0 °F - 36.0 °F 33% 30.04 in 10.0 mi ESE 12.7 mph - N/A   Clear
6:54 PM 64.0 °F - 37.0 °F 37% 30.04 in 10.0 mi ESE 9.2 mph - N/A   Clear
7:54 PM 59.0 °F - 37.9 °F 46% 30.07 in 10.0 mi East 5.8 mph - N/A   Clear
8:54 PM 53.1 °F - 37.0 °F 55% 30.08 in 10.0 mi East 9.2 mph - N/A   Clear
9:54 PM 50.0 °F - 37.0 °F 61% 30.09 in 10.0 mi East 8.1 mph - N/A   Clear
10:54 PM 45.0 °F 40.6 °F 36.0 °F 71% 30.11 in 10.0 mi ENE 8.1 mph - N/A   Clear
11:54 PM 42.1 °F 37.7 °F 35.1 °F 76% 30.10 in 10.0 mi ENE 6.9 mph - N/A   Clear